Wind_Speed
10 9 9 9 9 9 10 11 11 11 11 12 11 11 11 11 11 11 12 12 11 10 10 9 9 9 8 7 6 5 5 5 4 3 3 3 3 3 3 4 3 2 2 3
11 10 10 10 10 10 10 11 11 11 11 11 12 11 12 11 11 12 12 12 11 11 11 10 10 9 7 7 6 6 5 5 4 4 4 3 3 3 3 3 3 2 2 2
12 11 12 11 11 11 11 11 12 12 11 11 11 11 12 12 12 12 12 12 11 12 11 10 9 8 7 7 7 6 5 5 4 4 4 3 3 3 3 2 2 2 2 2
14 13 13 13 12 12 12 12 12 12 12 11 11 11 11 12 12 12 12 12 12 12 11 10 9 8 7 7 7 6 5 5 5 4 4 4 3 3 3 2 2 2 1 1
15 15 14 14 13 13 13 12 12 12 12 11 11 12 12 13 13 12 12 12 11 11 10 10 10 9 8 7 7 7 6 5 5 5 4 4 4 3 3 3 3 2 1 1
17 16 15 15 14 14 13 13 13 12 12 12 11 12 13 14 14 13 12 12 11 11 10 10 10 10 9 8 8 8 7 6 6 5 5 5 4 4 3 3 3 2 2 1
19 17 16 16 15 15 14 14 13 12 11 12 13 13 14 14 14 14 13 13 12 11 10 10 10 10 10 10 9 8 8 7 7 6 6 5 5 4 4 3 3 2 2 1
20 19 17 16 16 15 15 14 13 11 10 11 13 14 15 15 14 14 14 13 13 11 11 11 11 11 10 10 10 9 8 8 7 7 6 6 6 5 4 4 3 3 3 2
21 20 18 17 17 16 16 15 14 14 13 13 13 14 16 16 15 14 14 14 13 12 12 12 12 12 11 11 10 10 9 9 8 8 7 7 6 6 5 4 4 4 3 2
22 22 20 18 18 18 18 16 16 16 15 13 14 15 16 16 15 15 15 14 14 13 13 12 12 13 12 12 11 10 10 10 9 9 8 8 7 7 6 6 5 5 4 4
23 22 22 21 20 19 18 18 18 18 17 15 14 16 18 17 16 16 16 15 14 14 13 13 13 13 13 13 12 11 10 11 10 10 10 9 8 8 7 7 6 6 6 5
25 24 24 22 21 20 20 20 19 19 18 17 17 19 19 18 17 17 17 16 15 14 14 14 14 14 14 13 13 11 11 11 11 11 11 11 10 9 8 8 8 7 6 6
26 26 25 25 24 22 22 21 21 20 20 19 19 21 19 19 19 19 18 18 16 16 15 14 14 13 13 13 13 13 12 12 12 12 12 11 11 10 10 9 8 8 7 7
28 27 27 26 26 24 23 23 23 22 22 21 20 21 20 20 20 20 19 18 17 17 16 15 14 13 13 13 13 13 13 12 12 12 13 12 12 11 11 10 9 9 9 8
29 29 28 27 26 27 26 25 25 24 22 22 21 21 22 20 20 20 19 18 18 17 16 15 15 14 13 13 13 13 13 13 13 13 13 13 12 12 12 11 10 10 9 9
30 30 29 29 28 28 27 26 25 24 23 23 23 22 22 22 21 20 19 18 18 17 16 16 16 15 15 15 14 14 13 12 13 13 12 13 13 13 12 12 12 11 11 11
30 30 31 30 29 29 28 26 25 25 24 24 23 23 23 23 21 20 20 19 19 18 17 16 16 17 16 15 15 14 13 13 13 13 13 12 13 12 13 13 13 12 11 11
31 31 31 31 30 31 28 27 26 26 25 26 25 23 23 23 22 21 20 19 19 19 18 17 17 17 16 15 15 14 13 14 14 13 13 12 13 14 14 14 14 13 13 13
32 32 32 32 32 32 30 27 26 27 27 26 24 24 23 23 22 21 21 20 19 19 18 18 17 17 16 16 15 15 14 15 14 13 13 13 14 14 14 15 15 14 14 14
33 33 33 33 33 33 30 27 26 26 27 25 24 24 23 23 23 21 21 21 20 19 19 18 18 17 17 17 17 16 15 15 15 15 14 13 13 14 14 14 15 15 15 15
34 34 34 33 33 33 30 28 26 27 26 24 24 23 23 23 23 22 21 21 21 20 20 19 19 18 18 17 17 17 17 16 15 15 15 15 14 14 14 14 14 14 15 14
34 34 34 33 33 32 29 28 27 27 26 25 24 23 23 23 23 22 22 21 21 20 20 20 20 19 18 18 17 17 18 18 17 16 16 16 16 15 15 15 15 15 16 15
34 35 35 34 33 31 30 29 27 27 26 25 23 23 24 24 24 23 22 22 21 20 20 20 20 20 19 18 18 18 17 18 18 18 18 18 17 16 16 16 15 15 15 15
34 34 34 34 33 32 31 29 28 28 27 26 25 25 25 25 24 24 23 23 22 21 20 20 20 20 20 19 19 19 18 17 17 17 17 18 17 16 17 17 16 16 16 16
34 34 34 34 33 33 32 29 28 28 27 27 26 27 26 25 25 25 24 23 22 21 21 21 21 20 20 19 20 20 19 18 18 17 17 17 17 17 17 18 17 17 17 17
33 34 34 33 33 33 31 29 28 28 27 27 27 27 27 27 26 26 25 24 23 22 21 21 21 21 21 20 20 20 20 19 19 18 18 18 17 17 17 17 17 17 17 17
Wind_Direction
266 268 276 281 284 288 292 296 299 300 303 302 299 300 302 300 298 293 290 291 291 288 279 280 287 290 293 289 287 284 274 276 282 295 304 305 310 315 319 328 341 354 1 359
262 263 269 272 277 284 285 290 296 300 301 302 299 299 300 300 300 297 294 290 288 285 279 277 283 286 282 277 279 281 278 271 273 281 296 298 311 316 316 324 337 349 354 2
257 260 262 267 274 277 281 285 291 296 299 296 298 298 297 300 301 297 294 292 287 282 278 275 279 280 275 271 274 276 270 265 273 277 277 282 299 315 323 325 321 325 335 350
253 256 260 266 270 273 278 284 287 291 295 297 299 301 304 304 304 298 292 291 286 281 277 272 274 271 269 267 270 272 267 266 269 269 269 276 285 291 304 320 319 311 317 329
251 256 259 262 266 269 273 279 283 288 292 293 293 296 302 304 304 302 296 294 287 282 275 270 269 262 263 265 266 268 266 264 259 263 266 269 276 278 285 297 309 306 302 322
249 253 257 260 263 266 269 273 278 284 287 290 295 295 297 299 301 301 298 293 288 281 274 270 267 261 259 260 262 262 263 258 252 256 260 264 269 271 277 285 291 281 279 281
251 251 254 258 262 265 267 270 275 281 292 293 295 293 292 294 298 299 297 293 288 280 274 271 265 262 259 258 258 255 256 253 248 248 255 259 264 269 272 278 283 256 248 235
254 255 257 258 262 265 266 268 270 273 281 288 292 295 293 294 295 293 292 290 285 280 274 272 267 264 261 258 256 251 248 248 248 245 249 257 260 263 266 269 265 247 245 232
252 256 258 259 261 262 263 263 265 264 265 270 278 285 291 293 292 292 290 288 284 280 276 272 265 263 260 258 256 251 247 245 245 242 248 252 255 256 259 263 252 253 248 235
251 257 256 256 257 257 259 260 258 259 262 263 271 278 285 286 291 291 289 288 285 278 274 273 265 258 257 257 254 251 248 243 242 245 252 252 251 253 253 255 249 249 247 246
247 254 256 254 254 258 258 257 257 259 261 262 264 267 276 283 288 290 287 284 283 277 274 271 266 261 258 254 250 248 246 244 246 246 248 250 251 251 248 245 249 249 246 247
244 249 254 255 254 256 257 256 257 258 259 260 259 264 271 278 283 284 284 281 279 276 273 271 267 263 258 252 247 248 246 246 247 248 246 249 248 243 242 244 245 242 244 246
243 245 248 252 252 252 253 254 256 258 258 260 260 267 268 274 276 278 280 278 276 274 272 272 268 263 258 252 247 247 248 248 249 249 245 243 243 240 240 243 242 243 248 248
242 243 245 249 254 255 255 255 255 257 259 260 259 263 267 270 274 277 278 276 275 273 271 268 264 262 260 254 248 247 248 249 250 248 245 244 241 240 242 241 241 244 247 247
241 243 243 246 252 255 254 254 256 258 259 258 257 260 265 268 271 274 277 275 273 272 269 264 260 258 258 254 249 249 252 251 248 247 246 244 240 238 240 242 241 243 247 248
241 243 244 245 247 252 252 252 253 256 256 257 256 256 262 265 267 270 274 273 270 270 266 261 258 254 254 253 251 250 250 248 244 246 246 242 239 239 240 239 242 244 246 249
243 244 245 246 246 249 250 250 252 255 255 256 258 259 260 263 265 268 271 269 268 267 265 260 256 253 251 251 252 248 245 244 245 247 244 241 239 240 238 236 240 245 250 253
242 243 245 247 246 248 250 251 251 254 255 256 257 259 261 263 263 266 269 267 264 264 264 262 256 253 250 249 251 246 242 242 242 244 242 242 241 242 241 239 241 244 249 254
240 242 244 246 247 249 249 250 251 253 254 255 256 257 260 262 263 264 264 263 261 260 260 261 254 250 248 248 247 244 241 241 241 243 245 243 243 245 246 243 244 247 251 254
240 242 243 245 246 249 250 250 250 252 253 253 253 255 257 258 260 260 261 259 257 256 255 255 253 249 248 249 246 245 243 242 242 244 247 249 248 248 248 248 249 251 254 256
241 240 242 244 246 248 248 249 249 250 253 253 253 254 255 257 258 259 258 257 256 256 253 252 252 251 248 247 245 243 242 243 243 245 246 249 251 250 249 251 253 255 254 256
242 241 241 242 244 245 246 247 248 251 253 253 251 252 255 256 257 257 257 256 255 255 251 249 249 247 246 246 244 242 242 244 244 246 249 252 253 253 253 253 254 256 256 257
241 241 241 242 244 247 247 247 249 249 250 252 252 252 254 254 254 254 255 254 253 253 251 249 247 245 245 244 243 243 245 245 246 248 249 252 252 251 250 251 253 256 258 260
242 240 240 241 242 244 246 247 247 248 250 250 250 251 251 252 252 251 252 253 252 250 250 247 246 245 244 242 241 242 243 245 244 246 248 249 250 249 249 249 251 255 259 260
241 239 239 241 242 244 245 246 248 249 249 247 247 248 249 250 250 249 249 250 250 248 249 245 243 243 242 243 242 241 242 243 243 245 247 248 250 249 249 251 253 256 259 261
241 239 238 240 241 244 245 245 248 248 248 247 246 246 247 249 248 248 247 246 246 246 247 245 242 242 243 242 241 241 241 243 246 250 251 248 248 249 252 255 255 257 260 262
Height
5868 5869 5869 5869 5869 5869 5869 5868 5868 5867 5866 5865 5865 5864 5864 5863 5863 5863 5863 5863 5862 5862 5862 5862 5862 5862 5862 5862 5862 5862 5862 5863 5863 5863 5863 5863 5863 5863 5863 5862 5862 5862 5861 5861
5866 5867 5867 5867 5867 5867 5867 5867 5866 5866 5865 5864 5863 5863 5862 5862 5861 5861 5861 5861 5860 5860 5860 5861 5861 5861 5861 5861 5861 5861 5861 5862 5862 5863 5863 5863 5863 5863 5863 5862 5862 5862 5861 5861
5863 5865 5864 5865 5865 5865 5865 5865 5864 5864 5863 5862 5862 5862 5861 5860 5860 5859 5859 5859 5858 5858 5859 5859 5859 5859 5859 5859 5860 5860 5861 5861 5861 5862 5862 5862 5863 5862 5862 5862 5862 5861 5861 5861
5860 5861 5862 5862 5863 5863 5863 5863 5862 5862 5861 5861 5861 5860 5860 5858 5858 5858 5857 5857 5857 5857 5857 5857 5858 5858 5858 5858 5859 5859 5859 5860 5860 5861 5861 5862 5862 5862 5862 5862 5861 5861 5861 5861
5857 5858 5859 5860 5860 5861 5861 5861 5860 5860 5859 5859 5859 5858 5858 5857 5856 5856 5855 5855 5855 5855 5855 5856 5856 5856 5857 5857 5858 5858 5858 5859 5859 5860 5861 5861 5861 5861 5861 5861 5861 5861 5861 5861
5853 5854 5856 5857 5857 5858 5858 5859 5858 5858 5857 5858 5857 5857 5856 5854 5854 5854 5854 5853 5853 5853 5853 5854 5854 5855 5856 5856 5856 5857 5857 5858 5859 5859 5860 5860 5861 5861 5861 5861 5861 5861 5861 5861
5849 5850 5852 5853 5854 5855 5856 5856 5856 5856 5855 5856 5855 5855 5855 5853 5852 5852 5852 5851 5851 5851 5852 5852 5853 5853 5854 5854 5855 5856 5856 5857 5857 5858 5859 5859 5860 5860 5860 5860 5860 5860 5861 5861
5845 5846 5848 5850 5851 5852 5852 5853 5854 5855 5854 5854 5853 5853 5853 5851 5851 5850 5850 5850 5849 5850 5850 5850 5851 5851 5852 5853 5853 5854 5854 5855 5856 5857 5858 5858 5859 5859 5859 5860 5860 5860 5861 5861
5841 5842 5844 5846 5847 5848 5849 5849 5851 5851 5851 5851 5851 5851 5849 5849 5848 5848 5848 5848 5847 5848 5848 5848 5849 5849 5850 5850 5851 5852 5852 5853 5854 5855 5856 5857 5857 5858 5858 5859 5859 5860 5860 5861
5836 5838 5839 5841 5842 5844 5845 5846 5847 5847 5848 5848 5849 5848 5847 5846 5846 5846 5845 5845 5845 5845 5845 5846 5846 5847 5848 5848 5849 5849 5850 5851 5852 5853 5854 5855 5856 5856 5857 5858 5859 5859 5860 5860
5830 5833 5834 5836 5838 5839 5841 5842 5842 5843 5844 5845 5846 5848 5844 5843 5843 5843 5843 5842 5843 5843 5843 5843 5844 5844 5845 5846 5846 5847 5848 5849 5850 5851 5852 5853 5854 5855 5855 5856 5857 5858 5859 5860
5824 5827 5828 5831 5833 5834 5835 5837 5838 5840 5840 5841 5842 5844 5841 5840 5840 5840 5839 5839 5839 5840 5840 5840 5841 5841 5842 5843 5844 5845 5846 5847 5848 5848 5849 5850 5852 5853 5854 5855 5856 5857 5858 5859
5818 5821 5823 5825 5828 5829 5830 5832 5833 5834 5835 5836 5837 5840 5838 5837 5837 5836 5836 5836 5836 5836 5837 5837 5838 5838 5839 5840 5841 5842 5843 5844 5845 5845 5846 5848 5849 5850 5852 5853 5854 5855 5856 5857
5811 5814 5818 5820 5821 5823 5824 5826 5828 5829 5830 5831 5832 5833 5833 5833 5833 5833 5833 5833 5832 5833 5833 5834 5834 5835 5836 5837 5838 5839 5840 5841 5842 5843 5844 5845 5847 5848 5849 5851 5852 5853 5854 5855
5804 5807 5810 5812 5815 5816 5818 5821 5822 5824 5825 5827 5828 5828 5828 5829 5829 5828 5829 5829 5829 5829 5830 5830 5831 5832 5833 5834 5835 5836 5837 5837 5839 5840 5841 5842 5844 5845 5847 5848 5850 5851 5852 5853
5796 5800 5803 5805 5807 5809 5811 5814 5816 5818 5820 5821 5822 5823 5823 5823 5824 5824 5824 5825 5825 5825 5826 5827 5828 5829 5830 5831 5832 5833 5834 5834 5836 5837 5838 5840 5841 5843 5844 5846 5847 5849 5850 5851
5789 5793 5795 5798 5800 5802 5804 5808 5810 5812 5813 5815 5816 5818 5818 5818 5819 5819 5820 5820 5821 5822 5822 5823 5824 5825 5826 5827 5829 5830 5831 5832 5833 5834 5835 5837 5839 5840 5842 5843 5845 5846 5848 5849
5782 5785 5787 5790 5793 5794 5801 5801 5804 5805 5807 5809 5810 5811 5812 5813 5814 5814 5815 5816 5817 5817 5818 5819 5820 5821 5822 5824 5825 5826 5827 5829 5830 5832 5833 5834 5836 5837 5839 5840 5842 5843 5845 5846
5774 5777 5780 5783 5784 5787 5792 5794 5797 5799 5800 5802 5804 5805 5807 5808 5808 5809 5810 5811 5812 5813 5814 5815 5816 5817 5819 5820 5821 5823 5824 5825 5827 5829 5830 5831 5833 5834 5835 5837 5838 5840 5841 5842
5766 5769 5773 5775 5777 5779 5785 5787 5790 5793 5794 5796 5798 5799 5801 5802 5803 5805 5805 5806 5807 5808 5809 5811 5812 5813 5815 5816 5818 5819 5821 5822 5824 5825 5827 5828 5829 5831 5832 5833 5835 5836 5837 5838
5758 5760 5764 5767 5769 5772 5778 5780 5783 5787 5789 5790 5791 5793 5795 5796 5797 5799 5799 5801 5802 5803 5805 5806 5807 5809 5810 5812 5813 5815 5817 5819 5820 5822 5823 5825 5826 5827 5828 5829 5831 5832 5833 5835
5750 5753 5756 5759 5762 5768 5770 5773 5777 5779 5781 5783 5785 5787 5789 5790 5791 5793 5794 5795 5797 5798 5800 5801 5802 5804 5806 5807 5809 5811 5813 5814 5816 5818 5819 5821 5822 5823 5825 5826 5827 5828 5829 5830
5742 5746 5750 5753 5758 5761 5763 5766 5769 5771 5774 5776 5779 5781 5782 5784 5785 5787 5789 5790 5791 5793 5795 5796 5797 5799 5801 5803 5805 5807 5808 5810 5812 5813 5815 5816 5818 5819 5820 5822 5823 5824 5825 5826
5735 5739 5742 5745 5749 5752 5755 5758 5761 5764 5767 5769 5772 5774 5776 5777 5779 5781 5783 5784 5786 5788 5789 5791 5792 5794 5796 5798 5800 5802 5804 5806 5807 5809 5810 5812 5813 5815 5816 5817 5819 5820 5821 5822
5727 5730 5734 5737 5741 5744 5748 5751 5754 5757 5759 5762 5764 5766 5768 5771 5772 5775 5776 5778 5780 5782 5784 5786 5787 5789 5791 5793 5795 5797 5799 5801 5803 5804 5806 5807 5809 5810 5811 5813 5814 5815 5816 5817
5719 5722 5726 5730 5734 5737 5740 5743 5746 5748 5751 5754 5756 5759 5761 5763 5765 5768 5770 5772 5774 5777 5778 5780 5782 5784 5786 5788 5790 5792 5794 5796 5798 5800 5801 5803 5804 5805 5807 5808 5809 5810 5811 5812